Probability
0 0 0 3 3 3 6 6 6 3 3 3 3 0 0 0 0 0 0 0 0 0 0 0 0 0 0 0 0 0 0 0 0 0 0 0 0 0 0 0 0 0 0
0 0 0 0 3 3 3 3 6 3 3 0 3 3 0 0 0 0 0 0 0 0 0 0 0 0 0 0 0 0 0 0 0 0 0 0 0 0 0 0 0 0 0
0 0 0 0 3 3 3 3 3 3 3 3 3 3 0 0 0 0 0 0 0 0 0 0 0 0 0 0 0 0 0 0 0 0 0 0 0 0 0 0 0 0 0
0 0 0 0 3 3 3 3 3 3 3 3 3 3 0 0 0 0 0 0 0 0 0 0 0 0 0 0 0 0 0 0 0 0 0 0 0 0 0 0 0 0 0
0 0 0 0 3 3 3 3 3 3 3 3 3 3 0 0 0 0 0 0 0 0 0 0 0 0 0 0 0 0 0 0 0 0 0 0 0 0 0 0 0 0 0
0 0 0 0 0 0 3 3 3 3 3 3 3 3 0 0 0 0 0 0 0 0 0 0 0 0 0 0 0 0 0 0 0 0 0 0 0 0 0 0 0 0 0
0 0 0 0 0 0 0 0 0 3 3 3 3 3 3 0 0 0 0 0 0 0 0 0 0 0 0 0 0 0 0 0 0 0 0 0 0 0 0 0 0 0 0
0 0 0 0 0 0 0 0 0 0 0 3 3 3 3 3 0 0 0 0 0 0 0 0 0 0 0 0 0 0 0 0 0 0 0 0 0 0 0 0 0 0 0
0 0 0 0 0 0 0 0 0 0 0 0 0 3 3 3 3 0 0 0 0 0 0 0 0 0 0 0 0 0 0 0 0 0 0 0 0 0 0 0 0 0 0
0 0 0 0 0 0 0 0 0 0 0 0 0 0 0 3 3 0 0 0 0 0 0 0 0 0 0 0 0 0 0 0 0 0 0 0 0 0 0 0 0 0 0
0 0 0 0 0 0 0 0 0 0 0 0 0 0 0 0 0 0 0 0 0 0 0 0 0 0 0 0 0 0 0 0 0 0 0 0 0 0 0 0 0 0 0
0 0 0 0 0 0 0 0 0 0 0 0 0 0 0 0 0 0 0 0 0 0 0 0 0 0 0 0 0 0 0 0 0 0 0 0 0 0 0 0 0 0 0
0 0 0 0 0 0 0 0 0 0 0 0 0 0 0 0 0 0 0 0 0 0 0 0 0 0 0 0 0 0 0 0 0 0 0 0 0 0 0 0 0 0 0
0 0 0 0 0 0 0 0 0 0 0 0 0 0 0 0 0 0 0 0 0 0 0 0 0 0 0 0 0 0 0 0 0 0 0 0 0 0 0 0 0 0 0
0 0 0 0 0 0 0 0 0 0 0 0 0 0 0 0 0 0 0 0 0 0 0 0 0 0 0 0 0 0 0 0 0 0 0 0 0 0 0 0 0 0 0
0 0 0 0 0 0 0 0 0 0 0 0 0 0 0 0 0 0 0 0 0 0 0 0 0 0 0 0 0 0 0 0 0 0 0 0 0 0 0 0 0 0 0
0 0 0 0 0 0 0 0 0 0 0 0 0 0 0 0 0 0 0 0 0 0 0 0 0 0 0 0 0 0 0 0 0 0 0 0 0 0 0 0 0 0 0
0 0 0 0 0 0 0 0 0 0 0 0 0 0 0 0 0 0 0 0 0 0 0 0 0 0 0 0 0 0 0 0 0 0 0 0 0 0 0 0 0 0 0
0 0 0 0 0 0 0 0 0 0 0 0 0 0 0 0 0 0 0 0 0 0 0 0 0 0 0 0 0 0 0 0 0 0 0 0 0 0 0 0 0 0 0
0 0 0 0 0 0 0 0 0 0 0 0 0 0 0 0 0 0 0 0 0 0 0 0 0 0 0 0 0 0 0 0 0 0 0 0 0 0 0 0 0 0 0
0 0 0 0 0 0 0 0 0 0 0 0 0 0 0 0 0 0 0 0 0 0 0 0 0 0 0 0 0 0 0 0 0 0 0 0 0 0 0 0 0 0 0
0 0 0 0 0 0 0 0 0 0 0 0 0 0 0 0 0 0 0 0 0 0 0 0 0 0 0 0 0 0 0 0 0 0 0 0 0 0 0 0 0 0 0
0 0 0 0 0 0 0 0 0 0 0 0 0 0 0 0 0 0 0 0 0 0 0 0 0 0 0 0 0 0 0 0 0 0 0 0 0 0 0 0 0 0 0
0 0 0 0 0 0 0 0 0 0 0 0 0 0 0 0 0 0 0 0 0 0 0 0 0 0 0 0 0 0 0 0 0 0 0 0 0 0 0 0 0 0 0
0 0 0 0 0 0 0 0 0 0 0 0 0 0 0 0 0 0 0 0 0 0 0 0 0 0 0 0 0 0 0 0 0 0 0 0 0 0 0 0 0 0 0
0 0 0 0 0 0 0 0 0 0 0 0 0 0 0 0 0 0 0 0 0 0 0 0 0 0 0 0 0 0 0 0 0 0 0 0 0 0 0 0 0 0 0
Height
5677 5676 5676 5676 5676 5676 5677 5679 5681 5683 5684 5687 5689 5691 5693 5694 5696 5698 5701 5703 5704 5706 5708 5710 5712 5714 5716 5718 5720 5722 5724 5725 5726 5727 5728 5730 5731 5733 5736 5738 5740 5741 5743
5667 5667 5666 5666 5666 5666 5667 5669 5671 5672 5674 5676 5678 5679 5680 5682 5685 5687 5689 5691 5692 5694 5696 5698 5700 5702 5705 5707 5708 5710 5713 5714 5715 5716 5716 5718 5722 5723 5725 5727 5729 5731 5732
5659 5658 5657 5657 5656 5656 5657 5658 5660 5662 5663 5664 5666 5667 5669 5671 5673 5676 5678 5679 5680 5682 5684 5686 5688 5690 5693 5695 5698 5699 5701 5703 5704 5705 5706 5707 5710 5713 5714 5716 5718 5720 5721
5650 5649 5648 5647 5647 5647 5647 5648 5649 5651 5652 5653 5655 5657 5658 5661 5663 5664 5666 5668 5669 5671 5672 5674 5676 5679 5682 5684 5686 5688 5690 5691 5693 5694 5695 5697 5699 5701 5704 5706 5708 5709 5710
5641 5639 5638 5638 5637 5637 5637 5637 5637 5639 5640 5641 5643 5645 5647 5649 5651 5653 5655 5657 5659 5660 5661 5663 5665 5667 5670 5673 5674 5676 5679 5680 5682 5683 5685 5686 5688 5690 5693 5695 5697 5698 5700
5631 5630 5629 5628 5627 5627 5626 5626 5626 5627 5628 5629 5631 5633 5635 5637 5640 5642 5644 5646 5648 5649 5651 5652 5654 5656 5659 5661 5663 5664 5667 5669 5670 5672 5674 5675 5677 5679 5681 5684 5686 5688 5689
5623 5622 5621 5619 5618 5618 5617 5616 5615 5616 5617 5618 5619 5621 5623 5625 5628 5630 5632 5635 5637 5638 5640 5642 5644 5645 5647 5649 5651 5652 5655 5657 5659 5660 5662 5664 5666 5668 5670 5672 5674 5676 5678
5615 5613 5612 5610 5609 5609 5608 5607 5606 5606 5606 5607 5609 5609 5611 5613 5616 5619 5621 5624 5626 5627 5630 5632 5633 5634 5636 5638 5640 5641 5643 5645 5647 5649 5651 5653 5655 5657 5658 5661 5663 5665 5668
5607 5606 5604 5603 5601 5600 5600 5599 5598 5597 5597 5598 5599 5600 5600 5602 5605 5608 5611 5613 5615 5616 5618 5620 5622 5624 5625 5627 5629 5630 5632 5634 5636 5638 5639 5641 5643 5645 5647 5649 5651 5654 5656
5600 5599 5597 5595 5594 5593 5592 5591 5589 5589 5589 5590 5590 5591 5591 5592 5594 5597 5600 5602 5603 5605 5607 5609 5611 5612 5614 5615 5617 5619 5621 5622 5624 5626 5628 5630 5631 5634 5635 5637 5639 5641 5644
5593 5591 5590 5588 5586 5585 5584 5583 5582 5582 5582 5582 5582 5582 5582 5583 5585 5587 5589 5590 5592 5594 5596 5598 5599 5601 5602 5604 5605 5607 5609 5611 5613 5615 5617 5619 5620 5622 5624 5625 5627 5630 5632
5587 5585 5583 5582 5580 5578 5577 5576 5575 5575 5574 5574 5574 5574 5574 5574 5575 5576 5578 5579 5581 5583 5585 5587 5588 5590 5591 5592 5594 5596 5598 5600 5602 5604 5606 5608 5609 5611 5613 5615 5617 5619 5621
5581 5579 5577 5575 5573 5571 5570 5569 5568 5567 5567 5566 5565 5565 5566 5565 5566 5566 5568 5569 5571 5573 5575 5576 5577 5579 5581 5582 5583 5585 5587 5589 5591 5593 5595 5597 5598 5600 5602 5604 5606 5608 5610
5575 5573 5571 5569 5567 5565 5563 5562 5561 5560 5559 5558 5558 5557 5557 5556 5557 5557 5558 5560 5561 5563 5565 5567 5568 5569 5571 5572 5573 5575 5577 5578 5580 5582 5584 5586 5588 5590 5592 5594 5595 5597 5599
5569 5567 5565 5563 5561 5559 5557 5555 5554 5552 5551 5551 5550 5549 5549 5548 5548 5549 5550 5551 5553 5554 5555 5557 5559 5560 5561 5563 5563 5565 5566 5568 5569 5571 5573 5575 5577 5579 5581 5583 5585 5586 5588
5564 5562 5559 5557 5555 5553 5551 5549 5547 5545 5544 5544 5543 5542 5541 5540 5540 5541 5542 5543 5545 5546 5547 5548 5550 5551 5552 5553 5554 5555 5557 5558 5559 5561 5563 5565 5567 5569 5570 5572 5574 5576 5578
5558 5556 5553 5551 5548 5546 5544 5542 5540 5539 5537 5536 5535 5534 5534 5533 5534 5534 5535 5536 5537 5538 5539 5540 5541 5542 5543 5544 5544 5546 5547 5548 5549 5550 5552 5555 5557 5558 5560 5562 5563 5565 5567
5552 5550 5547 5545 5542 5540 5538 5536 5534 5532 5531 5529 5528 5528 5527 5527 5527 5528 5528 5529 5530 5531 5531 5533 5533 5534 5534 5535 5536 5537 5537 5538 5539 5541 5543 5545 5547 5548 5550 5552 5554 5555 5557
5545 5543 5540 5538 5536 5534 5532 5530 5528 5527 5525 5523 5522 5522 5521 5521 5521 5522 5522 5522 5523 5524 5524 5525 5525 5526 5526 5527 5527 5528 5528 5529 5531 5532 5534 5535 5537 5539 5541 5543 5544 5546 5548
5539 5536 5534 5533 5530 5528 5526 5525 5523 5521 5519 5518 5517 5516 5516 5516 5515 5516 5516 5516 5516 5516 5517 5517 5518 5519 5519 5519 5519 5519 5520 5521 5522 5524 5525 5527 5528 5530 5531 5533 5535 5537 5538
5533 5530 5529 5527 5525 5523 5521 5519 5518 5516 5514 5513 5512 5511 5511 5510 5510 5510 5510 5510 5510 5510 5510 5511 5511 5511 5511 5511 5511 5511 5512 5513 5514 5516 5517 5518 5519 5520 5522 5524 5526 5527 5529
5527 5525 5523 5522 5520 5518 5516 5514 5513 5511 5510 5509 5508 5507 5506 5506 5505 5504 5504 5504 5504 5504 5504 5504 5504 5504 5503 5503 5503 5503 5503 5504 5506 5507 5508 5509 5510 5512 5513 5515 5516 5518 5519
5521 5519 5518 5516 5514 5513 5511 5510 5508 5507 5505 5504 5503 5502 5502 5501 5500 5500 5499 5498 5498 5498 5498 5498 5497 5497 5496 5496 5495 5495 5496 5496 5498 5499 5500 5501 5502 5503 5505 5506 5508 5509 5511
5515 5514 5512 5511 5509 5507 5506 5504 5503 5502 5501 5500 5499 5498 5497 5496 5495 5494 5493 5493 5492 5492 5492 5491 5491 5490 5489 5488 5488 5488 5489 5489 5490 5491 5492 5493 5493 5495 5496 5498 5499 5501 5504
5509 5508 5506 5505 5503 5502 5501 5499 5498 5497 5496 5495 5494 5493 5492 5491 5489 5488 5487 5487 5486 5486 5485 5485 5484 5483 5483 5482 5481 5481 5482 5483 5483 5484 5485 5485 5486 5487 5489 5490 5492 5494 5497
5503 5501 5500 5499 5498 5497 5495 5494 5493 5492 5492 5491 5489 5488 5487 5485 5484 5483 5482 5481 5480 5479 5478 5478 5477 5477 5476 5475 5475 5475 5476 5476 5477 5477 5478 5479 5480 5481 5482 5484 5485 5488 5490
Wind_Speed
38 39 40 40 41 42 42 43 42 43 44 45 45 46 46 46 46 47 48 48 48 48 47 48 48 49 49 48 48 47 45 44 44 44 44 44 45 44 44 42 41 40 40
37 37 38 40 41 42 42 43 43 43 44 45 45 45 45 44 46 48 48 49 49 48 48 48 48 49 49 48 48 47 46 46 46 46 46 45 44 43 44 44 42 41 41
37 37 38 39 39 40 41 42 43 44 44 45 45 45 45 45 45 46 47 48 48 49 50 49 49 49 49 48 48 48 48 46 46 47 46 45 44 44 44 44 43 42 41
37 37 37 37 38 38 39 41 42 43 44 44 45 45 45 45 46 45 45 46 47 48 48 48 49 49 49 49 49 49 48 47 47 48 46 45 45 44 44 44 43 43 43
35 35 36 35 36 37 39 40 42 42 43 44 44 43 44 45 46 46 46 46 47 46 46 46 47 48 49 49 49 49 48 48 48 48 47 45 43 43 44 44 43 42 42
34 34 35 35 35 35 37 38 40 41 43 44 45 45 44 45 45 44 44 45 45 45 46 46 46 48 48 48 48 49 48 49 48 48 47 47 46 44 43 43 42 42 42
32 32 32 33 33 34 35 37 39 40 41 43 45 45 45 44 44 43 43 44 44 44 44 45 46 46 47 47 47 48 48 49 47 47 47 47 46 45 44 44 43 43 43
29 29 30 30 31 31 32 34 36 38 38 39 42 42 43 43 44 44 43 43 44 44 45 45 45 46 47 48 47 47 48 48 47 46 46 47 46 47 46 45 45 44 43
27 27 28 29 29 29 30 32 34 35 35 37 39 40 40 41 43 44 43 42 43 43 44 45 45 45 47 47 46 45 46 46 46 45 45 46 47 46 46 46 46 46 44
27 27 27 28 28 28 28 29 31 32 34 36 37 37 38 39 41 43 43 43 44 45 44 44 44 44 46 46 47 45 45 45 45 44 44 45 46 46 45 44 44 44 44
26 26 27 28 27 27 27 29 31 31 32 33 34 35 35 36 39 40 41 42 42 43 43 44 43 43 44 45 45 46 45 44 44 44 44 44 44 44 44 43 43 44 43
24 24 25 26 25 25 26 27 29 30 31 32 32 34 34 34 35 37 38 40 40 41 42 43 43 42 42 42 43 43 43 43 44 44 44 44 44 43 43 43 42 43 43
24 23 24 24 24 24 25 26 28 29 31 31 32 34 34 34 34 36 36 37 37 37 38 39 39 40 40 40 40 40 41 42 43 44 44 44 44 43 43 43 43 43 43
24 23 23 24 25 26 25 26 27 29 29 30 30 32 33 33 33 34 35 34 34 35 36 36 35 37 37 37 38 39 40 41 41 42 42 43 43 43 43 44 43 42 42
24 23 22 23 25 26 26 26 26 27 28 29 30 32 32 31 31 31 32 32 33 33 34 34 34 34 36 36 37 37 38 39 39 40 41 42 42 42 42 43 42 41 41
24 23 23 24 25 25 25 25 26 26 27 28 29 30 31 31 30 29 29 30 31 31 32 32 33 33 34 35 35 36 36 37 37 38 39 40 40 40 41 41 41 40 39
23 23 23 23 24 25 25 24 25 25 26 27 27 27 29 29 28 28 29 29 28 29 30 30 31 31 32 33 34 34 35 35 35 36 37 38 38 39 38 38 38 38 37
23 23 23 24 24 24 24 23 23 24 24 24 24 24 25 26 26 26 26 27 28 28 28 28 29 30 30 30 30 31 32 32 33 33 34 35 36 37 37 36 35 36 36
23 23 24 24 24 23 23 22 22 22 22 22 21 21 22 22 23 24 24 25 26 26 26 26 27 27 27 28 29 30 30 30 31 31 32 33 34 35 35 35 35 36 36
22 22 23 23 23 22 21 21 20 20 20 20 19 19 19 19 20 22 23 23 24 24 24 25 26 26 27 28 29 30 29 29 30 31 31 32 32 33 33 33 33 33 33
21 21 21 21 21 21 19 19 19 18 18 17 18 18 18 19 19 19 21 22 22 23 23 24 26 26 27 28 28 29 29 28 28 30 30 31 31 31 32 32 32 32 32
21 21 21 21 21 20 19 18 18 17 16 16 17 17 17 18 19 19 19 20 21 22 22 23 24 25 25 25 26 27 27 27 27 28 29 29 30 31 31 30 31 31 30
22 21 21 21 20 19 19 18 18 17 16 16 17 17 17 17 18 19 20 20 20 21 21 22 23 23 24 24 25 26 26 25 26 27 28 29 29 30 30 29 28 29 28
23 21 21 20 20 20 19 18 17 16 16 16 17 16 17 18 18 19 19 19 20 20 20 21 22 22 22 23 23 24 24 24 24 24 25 26 27 27 27 27 27 27 27
22 21 20 20 20 20 19 19 18 17 17 17 17 17 18 19 19 20 19 20 20 20 21 22 22 22 22 22 21 21 21 22 23 22 23 23 24 24 24 24 25 25 25
22 21 20 20 19 19 19 19 18 17 17 18 18 18 18 19 19 19 19 20 20 20 21 22 22 20 20 19 19 20 21 20 20 20 19 19 20 21 22 22 22 22 23
Wind_Direction
275 272 270 269 267 265 262 257 254 254 254 253 255 256 256 256 254 254 254 254 255 255 255 256 256 256 257 258 258 258 259 260 261 262 262 261 262 261 261 262 263 264 266
276 273 272 269 267 265 262 257 255 255 254 255 256 257 257 258 255 255 255 255 255 255 256 258 257 257 257 258 258 258 258 259 260 262 261 262 261 261 261 261 261 263 266
278 275 275 273 269 266 262 258 256 256 257 256 256 257 257 258 257 256 255 256 256 258 257 257 257 257 257 258 258 258 257 260 261 261 262 261 261 261 260 260 260 263 265
280 277 277 275 270 267 263 259 258 257 256 256 257 257 258 257 257 257 258 257 256 257 257 258 257 257 257 258 258 257 257 260 260 260 261 262 263 261 260 260 261 264 264
280 278 277 276 272 270 266 263 260 258 257 257 258 258 257 257 258 258 258 257 255 256 258 258 256 256 257 258 258 258 257 259 260 261 260 260 261 262 262 261 260 263 264
280 278 277 277 274 271 268 265 260 259 258 258 257 258 257 257 258 259 258 256 255 255 255 258 257 257 257 258 258 258 257 258 260 260 260 259 260 260 261 262 260 262 263
282 281 281 278 275 272 269 267 263 262 261 259 257 257 257 256 256 257 257 256 256 256 256 257 258 257 257 258 257 258 257 257 259 260 260 259 259 260 260 260 261 261 263
283 283 282 281 277 272 270 268 265 264 262 261 258 258 257 255 254 255 256 257 257 257 257 257 258 258 258 258 257 257 257 257 258 260 261 260 260 260 260 259 260 262 263
284 284 284 282 278 275 273 271 269 266 263 262 262 261 259 256 254 254 256 258 257 257 257 258 259 259 259 257 257 257 257 257 258 260 262 262 261 260 261 260 260 261 263
285 286 286 284 281 278 276 273 271 268 265 264 263 263 260 257 255 255 256 257 258 259 259 259 260 260 258 257 258 258 257 257 257 258 260 261 261 260 260 260 260 261 263
289 289 289 287 284 281 278 274 269 267 268 265 264 262 261 258 258 256 256 258 258 258 258 257 259 260 258 258 258 257 255 256 257 257 259 260 260 260 260 259 259 260 262
290 291 290 287 285 284 281 278 273 270 269 266 265 263 262 262 260 257 257 259 258 258 258 258 259 259 258 258 257 257 255 256 258 258 259 259 259 259 259 258 259 259 262
291 291 289 290 289 288 285 280 274 272 271 268 267 266 266 263 261 258 257 258 258 258 258 260 260 258 258 258 258 256 255 256 258 259 258 257 257 257 257 258 259 259 261
292 290 291 289 290 290 286 283 277 274 274 271 268 267 266 264 262 259 257 257 257 257 258 259 261 259 258 258 259 258 257 258 259 258 257 256 257 257 258 259 260 260 260
293 288 287 288 291 291 286 285 280 278 275 272 270 268 267 266 263 261 260 259 258 257 257 258 259 260 260 260 261 259 260 260 260 259 257 257 257 258 259 259 259 260 260
296 293 290 290 292 292 289 284 283 280 276 275 273 271 268 267 265 263 261 260 261 259 258 259 259 261 262 263 262 261 261 262 259 258 257 256 257 259 260 260 261 261 261
295 294 293 294 291 291 290 286 286 284 279 278 277 273 270 269 268 266 264 263 264 263 263 263 262 263 264 265 264 261 262 263 261 258 257 256 257 259 259 260 262 261 261
292 294 293 293 294 290 288 288 288 287 283 280 277 274 270 269 269 269 266 264 265 264 264 264 265 266 265 264 264 264 264 262 259 258 257 256 256 258 259 260 262 262 262
294 294 295 294 292 290 288 288 289 288 286 282 276 272 272 270 269 267 267 268 267 266 265 266 267 268 265 264 263 265 264 261 259 259 258 256 256 257 258 260 263 263 262
294 294 295 292 290 289 287 288 292 292 289 284 278 275 273 272 271 269 267 267 270 272 270 268 269 269 267 267 267 267 265 262 260 259 259 258 256 257 258 261 263 263 262
293 294 295 295 293 290 288 288 291 293 290 286 283 279 277 276 275 273 271 271 273 272 271 270 271 270 269 269 268 266 264 263 262 262 262 261 259 259 261 262 262 262 261
290 294 294 294 293 292 291 290 292 293 290 288 285 284 282 278 277 277 276 274 274 274 272 271 273 273 272 269 267 265 266 265 265 264 262 262 262 260 260 262 263 262 260
288 292 294 294 293 292 290 291 293 292 289 289 288 287 284 280 279 279 279 278 276 274 272 273 274 275 274 270 268 268 268 267 267 265 264 264 264 262 260 260 261 258 256
289 290 291 292 292 290 289 290 291 290 290 290 288 288 286 284 283 283 283 282 279 278 276 274 276 276 276 274 270 269 269 269 268 267 266 265 264 260 258 255 256 254 253
288 287 290 291 290 288 287 287 287 286 287 288 287 288 287 287 286 285 283 281 281 280 280 279 280 280 278 275 274 273 269 270 269 269 268 266 263 259 256 255 253 251 249
287 286 288 290 289 286 284 284 285 284 285 288 289 289 289 288 287 285 284 285 284 284 283 283 282 280 278 277 276 278 276 273 270 269 267 265 262 261 258 255 251 247 245